{"data":{"norad_id":62663,"intl_designator":"2025-009BG","name":"FLOCK 4G-5","alt_names":[],"object_type":"PAYLOAD","status":"ACTIVE","operator":null,"country":"US","launch_date":"2025-01-14","launch_site_code":"AFWTR","launch_vehicle":null,"mission":null,"orbit_class":"UNKNOWN","rcs_meters":null,"size_class":null,"mass_kg":null,"dimensions":null,"purposes":["earth_obs"],"wikipedia_slug":null,"has_3d_model":false,"image_url":null,"decayed_at":null,"tle_current":{"epoch":"2026-05-25T04:51:01.677600Z","epoch_age_seconds":53658,"freshness":"FRESH","line1":"1 62663U 25009BG  26145.20210275  .00008197  00000+0  28481-3 0  9996","line2":"2 62663  97.4026 227.6633 0004054  52.8227 307.3383 15.30000294 75420","mean_motion":15.30000294,"eccentricity":0.0004054,"inclination_deg":97.4026,"raan_deg":227.6633,"arg_perigee_deg":52.8227,"mean_anomaly_deg":307.3383,"bstar":0.00028481,"rev_number":7542,"period_min":94.117628973475,"perigee_km":473.03282970693,"apogee_km":478.59001108618,"semimajor_km":6853.9484203966,"source":"CELESTRAK","updated_at":"2026-05-25T13:38:13.341603Z"}}}